Weather History for Marietta, GA

Change the Weather History Date:

Monday, December 2, 2013

  Actual Average Record
Temperature  
Mean Temperature 47 °F -  
Max Temperature 51 °F 55 °F 73 °F (1998)
Min Temperature 43 °F 37 °F 24 °F (2002)
Degree Days  
Heating Degree Days 18    
Moisture  
Dew Point 48 °F    
Average Humidity 98    
Maximum Humidity 100    
Minimum Humidity 85    
Precipitation  
Precipitation 0.27 in - - ()
Sea Level Pressure  
Sea Level Pressure 29.90 in    
Wind  
Wind Speed 2 mph (SSE)    
Max Wind Speed 5 mph    
Max Gust Speed -    
Visibility 5 miles    
Events Rain    
Averages and records for this station are not official NWS values.
T = Trace of Precipitation, MM = Missing Value Source: NWS Daily Summary

Daily Weather History Graph

Daily Weather History Graph

Search for Another Location

Airport:

Trip Planner

Search our weather history database for the weather conditions in past years. The results will help you decide how hot, cold, wet, or windy it might be!

Date:

Astronomy

Dec. 02, 2013 Rise Set
Actual Time 7:26 AM EST 5:28 PM EST
Civil Twilight 6:58 AM EST 5:56 PM EST
Nautical Twilight 6:27 AM EST 6:27 PM EST
Astronomical Twilight 5:57 AM EST 6:57 PM EST
Moon 6:52 AM EST (12/2) 5:29 PM EST (12/2)
Length of Visible Light 10h 57m
Length of Day
10h 02m
Waning Crescent, 0% of the Moon is Illuminated
Dec 2
Waning Crescent
Dec 2
New
Dec 9
First Quarter
Dec 17
Full
Dec 25
Last Quarter

Hourly Weather History & Observations

Time (EST) Temp. Windchill Dew Point Humidity Pressure Visibility Wind Dir Wind Speed Gust Speed Precip Events Conditions
12:58 AM 43.9 °F - 40.5 °F 88% 30.02 in 10.0 mi Calm Calm - N/A   Overcast
1:58 AM 44.4 °F - 40.1 °F 85% 30.00 in 10.0 mi Calm Calm - N/A   Mostly Cloudy
2:58 AM 43.7 °F - 40.6 °F 89% 29.99 in 10.0 mi Calm Calm - N/A   Mostly Cloudy
3:22 AM 44.6 °F - 41.0 °F 87% 29.98 in 10.0 mi Calm Calm - N/A   Overcast
3:43 AM 44.6 °F - 41.0 °F 87% 29.98 in 10.0 mi Calm Calm - N/A   Overcast
3:56 AM 44.6 °F - 42.8 °F 93% 29.97 in 10.0 mi SE 2.3 mph - N/A   Light Drizzle
3:58 AM 44.6 °F - 42.8 °F 93% 29.97 in 10.0 mi SE 2.3 mph - 0.00 in   Light Drizzle
4:05 AM 44.6 °F - 42.8 °F 93% 29.96 in 10.0 mi Calm Calm - N/A   Overcast
4:58 AM 44.4 °F - 43.3 °F 96% 29.96 in 10.0 mi Calm Calm - 0.00 in   Overcast
5:37 AM 46.4 °F - 42.8 °F 87% 29.95 in 10.0 mi WNW 2.3 mph - N/A Rain Light Rain
5:58 AM 46.0 °F - 42.6 °F 88% 29.96 in 10.0 mi Variable 1.2 mph - 0.00 in Rain Light Rain
6:23 AM 44.6 °F 43.1 °F 42.8 °F 93% 29.96 in 8.0 mi WNW 3.5 mph - N/A Rain Light Rain
6:43 AM 44.6 °F - 44.6 °F 100% 29.96 in 9.0 mi West 2.3 mph - N/A Rain Light Rain
6:53 AM 44.6 °F 42.2 °F 44.6 °F 100% 29.96 in 4.0 mi West 4.6 mph - N/A Rain Light Rain
6:58 AM 45.0 °F 43.5 °F 43.9 °F 96% 29.97 in 4.0 mi West 3.5 mph - 0.03 in Rain Light Rain
7:24 AM 44.6 °F - 44.6 °F 100% 29.95 in 2.8 mi SW 2.3 mph - N/A Rain Light Rain
7:30 AM 44.6 °F - 44.6 °F 100% 29.95 in 2.5 mi SSW 2.3 mph - N/A Rain Light Rain
7:42 AM 44.6 °F - 44.6 °F 100% 29.96 in 2.0 mi SW 2.3 mph - N/A Rain Light Rain
7:51 AM 44.6 °F - 44.6 °F 100% 29.95 in 2.2 mi Calm Calm - N/A Rain Light Rain
7:56 AM 44.6 °F - 44.6 °F 100% 29.94 in 2.2 mi ESE 2.3 mph - N/A Rain Light Rain
7:58 AM 44.8 °F 43.3 °F 44.6 °F 99% 29.96 in 2.2 mi ESE 3.5 mph - 0.09 in Rain Light Rain
8:12 AM 44.6 °F - 44.6 °F 100% 29.95 in 3.0 mi Calm Calm - N/A Rain Light Rain
8:27 AM 44.6 °F - 44.6 °F 100% 29.95 in 3.0 mi Calm Calm - N/A Rain Light Rain
8:37 AM 44.6 °F - 44.6 °F 100% 29.95 in 3.0 mi Calm Calm - N/A Rain Light Rain
8:49 AM 44.6 °F - 44.6 °F 100% 29.94 in 3.0 mi Calm Calm - N/A   Overcast
8:58 AM 46.4 °F - 44.6 °F 93% 29.95 in 4.0 mi Calm Calm - 0.01 in   Overcast
9:09 AM 46.4 °F - 46.4 °F 100% 29.94 in 4.0 mi Calm Calm - N/A   Overcast
9:26 AM 46.4 °F - 46.4 °F 100% 29.94 in 3.0 mi Calm Calm - N/A   Overcast
9:38 AM 46.4 °F - 46.4 °F 100% 29.94 in 3.0 mi SW 2.3 mph - N/A   Overcast
9:56 AM 46.4 °F - 46.4 °F 100% 29.94 in 2.0 mi SSW 2.3 mph - N/A Rain Light Rain
9:58 AM 46.4 °F - 46.4 °F 100% 29.96 in 2.0 mi SSW 2.3 mph - N/A Rain Light Rain
10:03 AM 46.4 °F - 46.4 °F 100% 29.94 in 2.0 mi Calm Calm - N/A Rain Light Rain
10:30 AM 46.4 °F - 46.4 °F 100% 29.94 in 3.0 mi SSE 2.3 mph - N/A   Overcast
10:58 AM 47.7 °F - 47.3 °F 99% 29.94 in 3.0 mi SE 2.3 mph - 0.00 in   Overcast
11:58 AM 48.2 °F - 48.2 °F 100% 29.91 in 3.0 mi South 4.6 mph - N/A   Overcast
12:32 PM 48.2 °F - 48.2 °F 100% 29.89 in 3.0 mi South 3.5 mph - N/A   Overcast
12:42 PM 48.2 °F - 48.2 °F 100% 29.89 in 3.0 mi South 3.5 mph - N/A Rain Light Rain
12:52 PM 48.2 °F - 48.2 °F 100% 29.89 in 2.0 mi South 3.5 mph - N/A Rain Light Rain
12:58 PM 48.6 °F - 48.6 °F 100% 29.90 in 2.0 mi SSW 3.5 mph - 0.01 in Rain Light Rain
1:18 PM 50.0 °F - 50.0 °F 100% 29.88 in 3.0 mi Calm Calm - N/A Rain Light Rain
1:39 PM 50.0 °F - 50.0 °F 100% 29.86 in 3.0 mi SSW 3.5 mph - N/A   Overcast
1:46 PM 50.0 °F - 50.0 °F 100% 29.86 in 3.0 mi SSW 3.5 mph - N/A Rain Light Rain
1:58 PM 50.0 °F - 50.0 °F 100% 29.87 in 3.0 mi South 2.3 mph - 0.01 in   Overcast
2:06 PM 50.0 °F - 50.0 °F 100% 29.85 in 3.0 mi SSE 2.3 mph - N/A   Overcast
2:58 PM 50.5 °F - 50.4 °F 99% 29.85 in 3.0 mi SSW 3.5 mph - N/A   Overcast
3:03 PM 50.0 °F - 50.0 °F 100% 29.84 in 4.0 mi South 4.6 mph - N/A   Overcast
3:28 PM 51.8 °F - 50.0 °F 94% 29.83 in 4.0 mi SSW 2.3 mph - N/A   Overcast
3:58 PM 51.1 °F - 50.5 °F 98% 29.85 in 5.0 mi SSW 2.3 mph - N/A   Overcast
4:23 PM 51.8 °F - 50.0 °F 94% 29.83 in 5.0 mi Calm Calm - N/A   Overcast
4:38 PM 51.8 °F - 50.0 °F 94% 29.83 in 5.0 mi ESE 1.2 mph - N/A   Overcast
4:58 PM 51.4 °F - 50.7 °F 97% 29.84 in 5.0 mi South 2.3 mph - N/A   Overcast
5:18 PM 51.8 °F - 50.0 °F 94% 29.83 in 5.0 mi SE 2.3 mph - N/A   Overcast
5:58 PM 51.1 °F - 50.7 °F 99% 29.85 in 4.0 mi SSE 2.3 mph - N/A   Overcast
6:44 PM 51.8 °F - 50.0 °F 94% 29.85 in 7.0 mi SSE 2.3 mph - N/A Rain Light Rain
6:58 PM 50.9 °F - 50.7 °F 99% 29.86 in 6.0 mi SSE 1.2 mph - 0.01 in Rain Light Rain
7:52 PM 50.0 °F - 50.0 °F 100% 29.85 in 5.0 mi East 1.2 mph - N/A   Overcast
7:58 PM 50.0 °F - 50.0 °F 100% 29.86 in 5.0 mi SE 3.5 mph - 0.01 in   Overcast
8:13 PM 50.0 °F - 50.0 °F 100% 29.85 in 6.0 mi South 3.5 mph - N/A   Overcast
8:14 PM 50.0 °F - 50.0 °F 100% 29.85 in 6.0 mi South 4.6 mph - N/A Rain Light Rain
8:31 PM 51.8 °F - 51.8 °F 100% 29.86 in 6.0 mi Calm Calm - N/A   Overcast
8:58 PM 50.9 °F - 50.9 °F 100% 29.87 in 4.0 mi South 3.5 mph - 0.01 in Rain Light Rain
9:20 PM 51.8 °F - 51.8 °F 100% 29.86 in 7.0 mi Calm Calm - N/A   Overcast
9:32 PM 51.8 °F - 51.8 °F 100% 29.86 in 8.0 mi SE 2.3 mph - N/A   Light Drizzle
9:49 PM 51.8 °F - 51.8 °F 100% 29.85 in 8.0 mi SE 4.6 mph - N/A   Overcast
9:58 PM 51.3 °F - 51.3 °F 100% 29.86 in 8.0 mi SE 2.3 mph - 0.01 in   Overcast
10:13 PM 51.8 °F - 51.8 °F 100% 29.86 in 8.0 mi SSE 4.6 mph - N/A Rain Light Rain
10:58 PM 51.4 °F - 51.4 °F 100% 29.88 in 7.0 mi North 3.5 mph - 0.01 in Rain Light Rain
11:03 PM 51.8 °F - 51.8 °F 100% 29.87 in 4.0 mi NE 2.3 mph - N/A Rain Rain
11:18 PM 51.8 °F - 51.8 °F 100% 29.86 in 5.0 mi ESE 2.3 mph - N/A Rain Light Rain
11:28 PM 51.8 °F - 51.8 °F 100% 29.87 in 4.0 mi SSE 2.3 mph - N/A Rain Light Rain
11:33 PM 51.8 °F - 51.8 °F 100% 29.86 in 2.5 mi SE 3.5 mph - N/A Rain Light Rain
11:38 PM 51.8 °F - 51.8 °F 100% 29.86 in 3.0 mi ESE 3.5 mph - N/A Rain Light Rain
11:45 PM 51.8 °F - 51.8 °F 100% 29.86 in 5.0 mi SE 4.6 mph - N/A   Mostly Cloudy
11:47 PM 51.8 °F - 51.8 °F 100% 29.86 in 5.0 mi SE 4.6 mph - N/A Rain Light Rain
11:52 PM 51.8 °F - 51.8 °F 100% 29.86 in 5.0 mi SE 3.5 mph - N/A Rain Light Rain
11:57 PM 51.8 °F - 51.8 °F 100% 29.86 in 4.0 mi SE 2.3 mph - N/A Rain Light Rain
11:58 PM 51.8 °F - 51.8 °F 100% 29.87 in 4.0 mi SE 2.3 mph - 0.07 in Rain Light Rain